Location: Grums
(59.3529°N, 13.1129°E)
Time: 09:12:45
(UTC+02:00)

Envisat - Pass Details

Date: 29 September 2021
Orbit: 764 x 766 km, 98.2° (Epoch: 26 October)

Event Time Altitude Azimuth Distance (km) Brightness Sun altitude
Rises 05:04:31 0° 22° (NNE) 3,248 7.0 -16.2°
Reaches altitude 10° 05:07:27 10° 39° (NE) 2,316 6.5 -15.8°
Maximum altitude 05:11:10 20° 86° (E) 1,722 5.8 -15.4°
Drops below altitude 10° 05:14:52 10° 133° (SE) 2,303 5.8 -15.0°
Sets 05:17:46 0° 150° (SSE) 3,224 6.4 -14.6°
